Retour au catalogue

FENGYUN 1C DEB

LostPO
NORAD 36989·DEBRIS·🇨🇳 China

Lancé May 10, 1999 depuis Taiyuan Satellite Launch Center

Loading…

Prochains Passages (prochaines 24 heures)

TLE

PériméSource: Space-Track

Époque: Feb 24, 2024, 15:09 UTC

1 36989U 99025EBV 24055.63159469  .00005529  00000-0  39237-2 0  9996
2 36989  98.2256   3.1983 0255484  38.3951 323.5087 13.83507494753838

Suivez FENGYUN 1C DEB en temps réel avec AllMySat

Download on the App Store